Regional Weather Roundup
Issued by NWS

Home | Current Version | Previous Version | Text Only | Print | Product List | Glossary On
Versions: 1 2 3 4 5 6 7 8 9 10 11 12 13 14 15 16 17 18 19 20 21 22 23 24 25 26 27 28 29 30 31 32 33 34 35 36 37 38 39 40 41 42 43 44 45 46 47 48 49 50
000
ASUS43 KTOP 301708
RWRKS

WEATHER ROUNDUP FOR KANSAS
NATIONAL WEATHER SERVICE GOODLAND KS
1200 PM CDT SAT AUG 30 2014

NOTE:  "FAIR" INDICATES FEW OR NO CLOUDS BELOW 12,000 FEET WITH NO
SIGNIFICANT WEATHER AND/OR OBSTRUCTIONS TO VISIBILITY.

KSZ001>006-013>018-027>032-041>047-301800-
NORTHWEST KANSAS

CITY           SKY/WX    TMP DP  RH WIND       PRES   REMARKS
GOODLAND       SUNNY     81  52  36 S10       30.03F
HAYS           SUNNY     82  59  44 S12G17    29.99F
HILL CITY      SUNNY     80  60  50 SE6       29.98F
RUSSELL        SUNNY     82  63  52 VRB5      29.98F
$$

KSZ061>065-074>080-084>089-301800-
SOUTHWEST KANSAS

CITY           SKY/WX    TMP DP  RH WIND       PRES   REMARKS
DODGE CITY     SUNNY     87  49  26 S12       30.02F
ELKHART          N/A     81  59  47 SE12        N/A
GARDEN CITY    SUNNY     83  54  36 S13       30.03F
GREAT BEND     SUNNY     81  61  50 S5        30.00S
LIBERAL        MOSUNNY   86  55  35 S13       30.05F
PRATT          MOSUNNY   82  54  36 CALM      30.01F
$$

KSZ066>073-081>083-090>101-301800-
SOUTHEAST KANSAS

CITY           SKY/WX    TMP DP  RH WIND       PRES   REMARKS
CHANUTE        SUNNY     86  67  52 VRB3      29.95F
COFFEYVILLE    SUNNY     86  68  54 W5        29.95S
HUTCHINSON     MOSUNNY   85  62  46 CALM      29.98F
MEDICINE LODGE   N/A     87  60  40 N3        29.97S
NEWTON         SUNNY     84  59  42 CALM      30.01F
PARSONS        MOSUNNY   87  68  52 VRB3      29.96F
WICHITA INTL   MOSUNNY   88  63  43 VRB5      29.96F
WICHITA JABRA  SUNNY     87  63  44 MISG      29.97S
WICHITA MCCONL SUNNY     85  63  46 VRB1      29.97F
WINFIELD       SUNNY     87  65  47 CALM      29.97F
$$

KSZ007>012-019>026-033>040-048>060-102>105-301800-
NORTHEAST KANSAS

CITY           SKY/WX    TMP DP  RH WIND       PRES   REMARKS
CONCORDIA      SUNNY     79  65  62 CALM      29.98S
EMPORIA        SUNNY     85  62  46 VRB3      29.96S
LAWRENCE       SUNNY     86  67  52 NW6       29.94S
MANHATTAN      SUNNY     84  66  54 CALM      29.95F
MARYSVILLE     SUNNY     79  68  69 CALM      29.96F
OLATHE IND     SUNNY     82  66  58 VRB6      29.95F
OLATHE EXE     SUNNY     81  66  60 NW7       29.95S
SALINA         SUNNY     84  62  47 E6        29.97F
TOPEKA BILLARD SUNNY     83  69  62 CALM      29.95S
TOPEKA FORBES  SUNNY     84  66  54 VRB5      29.95S
$$



USA.gov is the U.S. government's official web portal to all federal, state and local government web resources and services.